Weather History for Hall Beach, NU

Change the Weather History Date:

Friday, October 21, 2011

  Actual Average Record
Temperature  
Mean Temperature 13 °F -  
Max Temperature 16 °F 20 °F 59 °F (1996)
Min Temperature 10 °F 9 °F 1 °F (1997)
Degree Days  
Heating Degree Days 52    
Moisture  
Dew Point 9 °F    
Average Humidity 76    
Maximum Humidity 92    
Minimum Humidity 54    
Precipitation  
Precipitation 0.00 in - - ()
Sea Level Pressure  
Sea Level Pressure 29.95 in    
Wind  
Wind Speed 10 mph ()    
Max Wind Speed 18 mph    
Max Gust Speed 22 mph    
Visibility 9.9 miles    
Events Snow    
Averages and records for this station are not official NWS values.
T = Trace of Precipitation, MM = Missing Value Source: Averaged Metar Reports

Daily Weather History Graph

Daily Weather History Graph

Search for Another Location

Airport:

Trip Planner

Search our weather history database for the weather conditions in past years. The results will help you decide how hot, cold, wet, or windy it might be!

Date:

Astronomy

Oct. 21, 2011 Rise Set
Actual Time 8:55 AM EDT 5:22 PM EDT
Civil Twilight 7:53 AM EDT 6:23 PM EDT
Nautical Twilight 6:46 AM EDT 7:30 PM EDT
Astronomical Twilight 5:39 AM EDT 8:37 PM EDT
Moon No Moon Rise 4:40 PM EDT (10/21)
Length of Visible Light 10h 30m
Length of Day
8h 27m
Waning Crescent, 34% of the Moon is Illuminated
Oct 21
Waning Crescent
Oct 26
New
Nov 2
First Quarter
Nov 10
Full
Nov 18
Last Quarter

Hourly Weather History & Observations

Time (EDT) Temp. Windchill Dew Point Humidity Pressure Visibility Wind Dir Wind Speed Gust Speed Precip Events Conditions
12:00 AM 12.2 °F -2.5 °F 8.6 °F 85% 30.03 in 9.0 mi WNW 12.7 mph - N/A   Overcast
1:00 AM 10.4 °F -4.8 °F 6.8 °F 85% 30.02 in 9.0 mi WNW 12.7 mph - N/A   Overcast
2:00 AM 11 °F - 7 °F 77% 30.03 in 9 mi WNW 12.7 mph - -   Overcast
3:00 AM 12.2 °F -1.8 °F 6.8 °F 79% 30.03 in 9.0 mi WNW 11.5 mph - N/A   Overcast
4:00 AM 14.0 °F 5.1 °F 8.6 °F 79% 30.03 in 9.0 mi NW 5.8 mph - N/A   Overcast
5:00 AM 12 °F - 9 °F 81% 30.02 in 9 mi WNW 9.2 mph - -   Overcast
5:00 AM 12.2 °F -0.2 °F 8.6 °F 85% 30.02 in 9.0 mi WNW 9.2 mph - N/A   Overcast
6:00 AM 15.8 °F 6.1 °F 8.6 °F 73% 30.03 in 9.0 mi NE 6.9 mph - N/A   Overcast
8:00 AM 12 °F - 9 °F 82% 30.02 in 9 mi WNW 9.2 mph - -   Overcast
9:00 AM 10.4 °F -3.3 °F 8.6 °F 92% 30.02 in 15.0 mi NW 10.4 mph - N/A Snow Light Snow
10:00 AM 10.4 °F -0.4 °F 8.6 °F 92% 30.01 in 15.0 mi WNW 6.9 mph - N/A Snow Light Snow
11:00 AM 13 °F - 10 °F 80% 30.00 in 9 mi West 3.5 mph - -   Overcast
11:00 AM 12.2 °F - 8.6 °F 85% 30.00 in 15.0 mi Calm Calm - N/A Snow Light Snow
12:00 PM 15.8 °F 6.1 °F 8.6 °F 73% 29.99 in 15.0 mi NE 6.9 mph - N/A   Overcast
1:00 PM 15.8 °F 5.1 °F 6.8 °F 68% 29.99 in 15.0 mi NE 8.1 mph - N/A Snow Light Snow
1:49 PM - - - N/A% - 15.0 mi East 8.1 mph - N/A   Overcast
2:00 PM 16 °F - 7 °F 54% 29.98 in 9 mi East 6.9 mph - -   Overcast
3:00 PM 15.8 °F 6.1 °F 8.6 °F 73% 29.98 in 12.0 mi ENE 6.9 mph - N/A   Overcast
3:30 PM - - - N/A% - 15.0 mi NNE 3.5 mph - N/A   Unknown
5:00 PM 16 °F - 7 °F 56% 29.96 in 9 mi ESE 6.9 mph - -   Overcast
5:00 PM 15.8 °F 8.6 °F 6.8 °F 68% 29.96 in 12.0 mi ESE 4.6 mph - N/A Snow Light Snow
6:00 PM 15.8 °F 0.9 °F 8.6 °F 73% 29.96 in 12.0 mi East 15.0 mph - N/A Snow Light Snow
7:00 PM 15.8 °F 6.1 °F 8.6 °F 73% 29.96 in 12.0 mi East 6.9 mph - N/A Snow Light Snow
8:00 PM 15 °F - 9 °F 66% 29.94 in 9 mi NE 11.5 mph - -   Overcast
8:11 PM 15.8 °F 2.1 °F 8.6 °F 73% 29.93 in 9.0 mi ENE 12.7 mph - N/A   Overcast
8:37 PM 15.8 °F 3.4 °F 8.6 °F 73% 29.93 in 9.0 mi NE 10.4 mph 17.3 mph N/A Snow Light Snow
8:54 PM 15.8 °F 2.1 °F 8.6 °F 73% 29.92 in 9.0 mi East 12.7 mph - N/A   Overcast
9:00 PM 15.8 °F 0.9 °F 8.6 °F 73% 29.93 in 9.0 mi ENE 15.0 mph 20.7 mph N/A   Overcast
9:38 PM 15.8 °F 0.9 °F 10.4 °F 79% 29.91 in 9.0 mi ENE 15.0 mph - N/A Snow Light Snow
9:43 PM 15.8 °F 0.9 °F 10.4 °F 79% 29.91 in 8.0 mi ENE 15.0 mph - N/A Snow Light Snow
10:00 PM 14.0 °F -2.5 °F 8.6 °F 79% 29.91 in 4.0 mi NE 17.3 mph - N/A Snow Light Snow
10:15 PM 15.8 °F 0.9 °F 8.6 °F 73% 29.90 in 9.0 mi NE 15.0 mph 21.9 mph N/A   Overcast
10:16 PM 15.8 °F 0.9 °F 8.6 °F 73% 29.90 in 9.0 mi NE 15.0 mph - N/A Snow Light Snow
10:17 PM 15.8 °F 0.3 °F 8.6 °F 73% 29.90 in 9.0 mi NE 16.1 mph - N/A   Overcast
10:21 PM 15.8 °F 2.7 °F 8.6 °F 73% 29.90 in 9.0 mi NE 11.5 mph 17.3 mph N/A Snow Light Snow
10:37 PM 15.8 °F 2.7 °F 8.6 °F 73% 29.90 in 9.0 mi ENE 11.5 mph 18.4 mph N/A   Overcast
11:00 PM 15 °F - 9 °F 66% 29.90 in 9 mi NE 11.5 mph - -   Overcast
11:00 PM 15.8 °F 2.7 °F 8.6 °F 73% 29.90 in 9.0 mi NE 11.5 mph 17.3 mph N/A   Overcast
11:15 PM 15.8 °F -0.6 °F 8.6 °F 73% 29.89 in 9.0 mi ENE 18.4 mph - N/A Snow Light Snow
11:24 PM 14.0 °F -3.0 °F 10.4 °F 86% 29.89 in 5.0 mi ENE 18.4 mph - N/A Snow Light Snow
11:28 PM 15.8 °F -0.2 °F 10.4 °F 79% 29.89 in 5.0 mi ENE 17.3 mph - N/A Snow Light Snow
11:57 PM 14.0 °F -1.4 °F 8.6 °F 79% 29.88 in 9.0 mi NE 15.0 mph 20.7 mph N/A   Overcast
11:58 PM 14.0 °F -0.8 °F 8.6 °F 79% 29.88 in 9.0 mi NE 13.8 mph 20.7 mph N/A Snow Light Snow